Location: Unspecified
(42.3650°N, 71.1030°W)
Time: 17:23:48
(UTC+00:00)

Transit 4A - Pass Details

Date: 02 July 2024
Orbit: 870 x 973 km, 66.8° (Epoch: 17 July)

Event Time Altitude Azimuth Distance (km) Brightness Sun altitude
Rises 08:22:12 0° 335° (NNW) 3,498 11.1 -8.2°
Reaches altitude 10° 08:25:03 10° 347° (NNW) 2,569 10.6 -7.8°
Maximum altitude 08:30:09 29° 46° (NE) 1,613 10.2 -7.1°
Drops below altitude 10° 08:35:21 10° 105° (ESE) 2,619 10.8 -6.3°
Sets 08:38:15 0° 117° (ESE) 3,576 11.3 -5.9°
